2023/01/25 00:00:00,48.3,-5.6
2023/01/25 00:10:00,49.1,-5.6
2023/01/25 00:20:00,49.5,-5.6
2023/01/25 00:30:00,49.8,-4.8
2023/01/25 00:40:00,50.6,-5.5
2023/01/25 00:50:00,51.1,-5.9
2023/01/25 01:00:00,51.8,-5.8
2023/01/25 01:10:00,52.5,-5.8
2023/01/25 01:20:00,52.7,-5.6
2023/01/25 01:30:00,53.1,-5.7
2023/01/25 01:40:00,54.4,-5.9
2023/01/25 01:50:00,55.1,-5.9
2023/01/25 02:00:00,55.3,-5.6
2023/01/25 02:10:00,56.2,-5.8
2023/01/25 02:20:00,56.6,-5.9
2023/01/25 02:30:00,57.2,-5.8
2023/01/25 02:40:00,57.6,-5.7
2023/01/25 02:50:00,58.0,-5.7
2023/01/25 03:00:00,58.8,-5.7
2023/01/25 03:10:00,59.6,-6.0
2023/01/25 03:20:00,60.5,-5.9
2023/01/25 03:30:00,61.4,-5.8
2023/01/25 03:40:00,62.3,-5.8
2023/01/25 03:50:00,62.8,-5.9
2023/01/25 04:00:00,63.4,-5.4
2023/01/25 04:10:00,64.2,-5.7
2023/01/25 04:20:00,65.6,-5.8
2023/01/25 04:30:00,66.7,-5.9
2023/01/25 04:40:00,67.8,-5.6
2023/01/25 04:50:00,69.0,-5.7
2023/01/25 05:00:00,69.6,-5.3
2023/01/25 05:10:00,69.7,-5.4
2023/01/25 05:20:00,70.1,-5.2
2023/01/25 05:30:00,71.8,-5.2
2023/01/25 05:40:00,72.7,-5.2
2023/01/25 05:50:00,73.0,-5.2
2023/01/25 06:00:00,73.1,-5.2
2023/01/25 06:10:00,72.9,-5.2
2023/01/25 06:20:00,72.4,-5.0
2023/01/25 06:30:00,72.1,-5.4
2023/01/25 06:40:00,71.5,-6.1
2023/01/25 06:50:00,71.1,-6.0
2023/01/25 07:00:00,70.9,-5.9
2023/01/25 07:10:00,70.4,-6.0
2023/01/25 07:20:00,70.0,-6.0
2023/01/25 07:30:00,69.5,-5.5
2023/01/25 07:40:00,69.3,-5.5
2023/01/25 07:50:00,69.2,-5.4
2023/01/25 08:00:00,68.9,-5.2
2023/01/25 08:10:00,68.5,-4.9
2023/01/25 08:20:00,68.5,-4.8
2023/01/25 08:30:00,68.2,-4.6
2023/01/25 08:40:00,68.0,-4.8
2023/01/25 08:50:00,68.5,-4.9
2023/01/25 09:00:00,69.9,-4.8
2023/01/25 09:10:00,70.2,-4.5
2023/01/25 09:20:00,71.3,-4.6
2023/01/25 09:30:00,72.5,-4.1
2023/01/25 09:40:00,72.7,-3.9
2023/01/25 09:50:00,73.1, 0.5
2023/01/25 10:00:00,73.0,-1.2
2023/01/25 10:10:00,72.8,-2.6
2023/01/25 10:20:00,72.5,-2.0
2023/01/25 10:30:00,72.3,-1.6
2023/01/25 10:40:00,71.9,-1.2
2023/01/25 10:50:00,71.7,-2.5
2023/01/25 11:00:00,71.8,-2.8
2023/01/25 11:10:00,71.7,-2.7
2023/01/25 11:20:00,71.5,-1.9
2023/01/25 11:30:00,71.4, 0.0
2023/01/25 11:40:00,71.3, 0.7
2023/01/25 11:50:00,70.7,-1.9
2023/01/25 12:00:00,70.4, 4.8
2023/01/25 12:10:00,70.2, 7.6
2023/01/25 12:20:00,70.2, 0.7
2023/01/25 12:30:00,70.3, 2.1
2023/01/25 12:40:00,70.5, 0.0
2023/01/25 12:50:00,70.5, 2.4
2023/01/25 13:00:00,69.9,-0.2
2023/01/25 13:10:00,69.8,-0.6
2023/01/25 13:20:00,69.5,-1.6
2023/01/25 13:30:00,69.3, 3.1
2023/01/25 13:40:00,69.2, 4.2
2023/01/25 13:50:00,68.8,-0.7
2023/01/25 14:00:00,68.3, 0.5
2023/01/25 14:10:00,68.0, 2.2
2023/01/25 14:20:00,67.8, 2.4
2023/01/25 14:30:00,67.3, 1.9
2023/01/25 14:40:00,67.1, 0.5
2023/01/25 14:50:00,67.0, 1.7
2023/01/25 15:00:00,66.7, 0.3
2023/01/25 15:10:00,66.1, 0.0
2023/01/25 15:20:00,65.8,-0.2
2023/01/25 15:30:00,65.5,-1.2
2023/01/25 15:40:00,65.0,-1.9
2023/01/25 15:50:00,64.7,-1.9
2023/01/25 16:00:00,64.8,-1.9
2023/01/25 16:10:00,64.8,-2.2
2023/01/25 16:20:00,64.6,-2.0
2023/01/25 16:30:00,64.3,-2.2
2023/01/25 16:40:00,64.0,-2.6
2023/01/25 16:50:00,63.9,-2.6
2023/01/25 17:00:00,64.1,-2.3
2023/01/25 17:10:00,64.0,-3.1
2023/01/25 17:20:00,63.9,-3.5
2023/01/25 17:30:00,63.6,-3.4
2023/01/25 17:40:00,63.4,-3.2
2023/01/25 17:50:00,63.4,-3.7
2023/01/25 18:00:00,63.3,-3.5
2023/01/25 18:10:00,63.1,-3.5
2023/01/25 18:20:00,62.9,-3.7
2023/01/25 18:30:00,62.9,-3.5
2023/01/25 18:40:00,62.9,-4.1
2023/01/25 18:50:00,62.7,-3.7
2023/01/25 19:00:00,62.5,-3.8
2023/01/25 19:10:00,62.4,-3.5
2023/01/25 19:20:00,62.3,-4.0
2023/01/25 19:30:00,62.3,-3.6
2023/01/25 19:40:00,62.1,-3.9
2023/01/25 19:50:00,62.0,-3.8
2023/01/25 20:00:00,62.0,-3.7
2023/01/25 20:10:00,62.4,-3.6
2023/01/25 20:20:00,62.4,-3.7
2023/01/25 20:30:00,62.4,-3.2
2023/01/25 20:40:00,62.4,-3.5
2023/01/25 20:50:00,62.4,-3.5
2023/01/25 21:00:00,62.0,-4.6
2023/01/25 21:10:00,61.7,-5.1
2023/01/25 21:20:00,61.7,-5.3
2023/01/25 21:30:00,61.8,-6.0
2023/01/25 21:40:00,61.7,-6.2
2023/01/25 21:50:00,61.8,-6.3
2023/01/25 22:00:00,61.7,-6.6
2023/01/25 22:10:00,61.5,-7.1
2023/01/25 22:20:00,61.4,-7.6
2023/01/25 22:30:00,61.1,-7.7
2023/01/25 22:40:00,60.8,-7.2
2023/01/25 22:50:00,60.5,-7.6
2023/01/25 23:00:00,60.5,-7.4
2023/01/25 23:10:00,60.3,-7.5
2023/01/25 23:20:00,60.1,-6.7
2023/01/25 23:30:00,60.1,-7.0
2023/01/25 23:40:00,60.0,-6.9
2023/01/25 23:50:00,59.5,-6.6
